Member area
Imprimable
Braine le Comte, 07/02/2015, BEL - Le Trail des Bosses
List of reports > 35km - Result
Search: Page: [1]
206 Entries
 
Complains are not accepted anymore. Results are final.
Category
PosNrNameAgeNATTeamRealTimeTkmMoy.PlaceNameCity
1.1211LOQUET Thomas32BELETCHIÈVRES2:35:312:35:314:27 13.501sehCHIÈVRES
2.1102DE ROUCK Wazo22BELACG2:57:002:57:025:04 11.862sehGERAARDSBERGEN
3.1011BAHOR Thomas30FRAACVA TRAIL2:57:032:57:095:04 11.853sehCAMPHIN EN PEVELE
4.1298STEENSELS Michiel39BEL2:57:532:57:545:05 11.804sehANTWERPEN
5.1294SOYEZ Frank50BELDIOH2:58:442:58:465:07 11.751v2hNIMY
6.1356WAUMANS Sil24BEL2:59:472:59:495:09 11.685sehPUURS
7.1033BLASSON Laurent36BELCEPAL3:04:313:04:365:17 11.386sehFOREST
8.1209LIEGEOIS Vincent42BELMADRES3:04:473:04:585:18 11.351v1hHONNELLES
9.1224MARZOUKI Samih36BELTEAM RAIDLIGHT3:06:153:06:195:20 11.277sehWOLUWE SAINT LAMBERT
10.1281SAGGIORATO Samuel38BELMPSTUDIODINANT3:06:273:06:275:20 11.268sehAYE
11.1116DUPUIS David30BEL3:06:333:06:575:21 11.239sehBRUXELLES
12.1363BETERAMS Leo38BEL3:07:073:07:115:21 11.2210sehMECHELEN
13.1249PAIRON Bertrand38BELASUB3:07:303:07:545:23 11.1811sehBRUXELLES
14.1177KADDARI Eric46FRAETM3:09:043:09:135:25 11.102v1hMOUSCRON
15.1162HONORE Vivien29FRABTC3:10:133:10:215:27 11.0312sehWEMMEL
16.1126FERRARD Olivier38BEL3:10:393:10:415:27 11.0113sehBEIGEM
17.1339VEREECKEN Martin44BELGENTLOOPT.BE3:11:253:11:255:29 10.973v1hGENTBRUGGE
18.1154HANSELAER Willem28BELGENTLOOPT3:11:163:11:265:29 10.9714sehWETTEREN
19.1301STOCKMANS François49BELRCB3:12:163:12:195:30 10.924v1hBRUXELLES
20.1311TRIFIN Jonathan32BELE.T.ENGHIEN3:12:443:12:525:31 10.8915sehENGHIEN
21.1355WAUMANS Bart50BEL3:12:493:12:555:31 10.892v2hPUURS
22.1350WAELKENS Benjamin31BELX'TRA TIME RUNN3:12:333:12:585:31 10.8816sehTEMPLEUVE
23.1188LAMBERG Olivier49BELUTT3:13:233:13:245:32 10.865v1hGRIMBERGEN
24.1150FGONZALEZ Anaïs28FRAACVA SECTION TR3:13:553:14:015:33 10.821sefVILLENEUVE D'ASCQ
25.1275ROELENS Benny50BEL3:14:543:15:255:35 10.753v2hST-ANDRIES
26.1037BONNECHÈRE Bruno28BELUTT3:15:223:15:295:36 10.7417sehBRUSSELS
27.1110DORCHY Cédric37BEL3:15:103:15:355:36 10.7418sehANTOING
28.1254PHILIPPOT Henry32BEL3:16:173:16:435:38 10.6819sehWATERMAEL-BOITSFORT
29.1052BRUYLANDT Roel39BELACG GERAARDSBER3:17:023:17:145:39 10.6520sehGERAARDSBERGEN
30.1282SAMAN Frederik29BELBLOSOM3:17:353:17:495:40 10.6221sehERPS-KWERPS
31.1278ROUSSEAU Julien29FRASECTION TRAIL V3:20:473:20:555:45 10.4522sehVILLENEUVE D'ASCQ
32.1383DENYS Patrick50BEL3:20:583:21:085:45 10.444v2h
33.1256PIERREUX Charlie38BELCEPAL3:21:083:21:085:45 10.4423sehBRUXELLES
34.1359ZICOT Christophe41BELZICOT TEAM3:21:133:21:315:46 10.426v1hAUVELAIS
35.1138GEORGES Eric47BELESM3:21:283:21:425:46 10.417v1hTRAZEGNIES
36.1055BUTAYE Oivier34BELLES ECUYERS3:22:393:22:575:48 10.3524sehNIVELLES
37.1317VANDERLINDEN Marc57BEL3:23:203:23:255:49 10.325v2hBRUXELLES
38.1295SPELMANS Christophe49BELBORN TO RUN3:23:213:23:355:49 10.328v1hBRAINE-LE-COMTE
39.1026BEGUIN Olivier40BELNCFYC3:24:053:24:475:52 10.269v1hPONT A CELLES
40.1139GÉRARD Jérémy36BELNCFYC3:24:063:24:495:52 10.2525sehMONTIGNY LE TILLEUL
41.1034BLAUWART Emmanuel47BELE.T.CHIÉVRES3:24:503:25:145:52 10.2310v1hHERCHIES
42.1092DELAHAYE Eric46FRAAC VILLENEUVE D3:25:273:25:355:53 10.2211v1hLAMBERSART
43.1384VERHEYEN Cedric37BELTRAKKS3:26:083:26:275:54 10.1726sehESNEUX
44.1058CAPOUET Mathieu34BEL3:28:143:28:315:58 10.0727sehLES BONS VILLERS
45.1283SCHACHT Wim47BELGENTLOOPT.BE3:28:513:29:205:59 10.0312v1hGENT
46.1390CAMBIER Pierre28BEL3:30:283:30:376:02 9.9728seh
47.1189FLAMBERT Anne-Sophie27BELBTC3:32:173:32:266:05 9.892sefETTERBEEK
48.1118ELOY Mathieu35BELFLEU3:31:443:32:276:05 9.8829sehFLEURUS
49.1140GHUISOLAND Alfred41BEL3:33:053:33:116:06 9.8513v1hNIMY
50.1036FBODAUX Stéphanie32BEL3:33:063:33:126:06 9.853sefDINANT
51.1181KNOCKAERT Pascal43BEL3:33:173:33:406:07 9.8314v1hRAMILLIES
52.1367GOOSSENS Gerrit31BELJOGGING CLUB WE3:33:473:34:076:08 9.8130sehKORTRIJK
53.1156HAULAIT Alain47BELHAC3:33:563:34:136:08 9.8015v1hBRAINE LE COMTE
54.1144GIVRON Regis25BEL3:33:433:34:326:08 9.7931sehCHARLEROI
55.1152GOOSSENS Thomas30BEL11/11/113:34:293:34:566:09 9.7732sehBRUXELLES
56.1111DORCHY Quentin42BELTEMPLEUVE3:35:223:35:476:10 9.7316v1hTEMPLEUVE
57.1330VANNESTE Michaël35BELAB MARKE3:35:513:36:116:11 9.7133sehMARKE
58.1213LUMEN Emmanuel39BEL/3:36:123:36:256:11 9.7034sehATH
59.1017BARBÉ Guido53BELACG GERAARDSBER3:36:203:36:326:12 9.706v2hGERAARDSBERGEN
60.1050BRACKX Brecht30BELMIDLON3:36:483:36:576:12 9.6835sehOOSTENDE
61.1163HOS Alain42BEL3:36:543:37:046:13 9.6717v1hJETTE
62.1183KRIER Benoit44BELRAIDLIGHT3:37:303:37:506:14 9.6418v1hSELANGE
63.1285SCHRIJVERS Fernand53BELVACH3:37:243:38:026:14 9.637v2hZUTENDAAL
64.1066CLAES Arnaud29BEL3:38:123:38:326:15 9.6136sehDROGENBOS
65.1222MARIANI Davide44ITAMARIANI3:38:313:38:396:15 9.6019v1hBRUXELLES
66.1042BORREMANS Nicolas41BEL3:38:463:39:006:16 9.5920v1hGERAARDSBERGEN
67.1176FJOURDAIN Caroline41DEU3:39:403:39:416:17 9.561v1fBOITSFORT
68.1325VANHAUWAERT Bert33BELJOGGINGCLUB WEV3:39:423:40:016:18 9.5437sehLAUWE
69.1225MEAD Jonathan30BEL3:39:533:40:036:18 9.5438sehBRUXELLES
70.1370VAN CAENEGEM Vincent33BELETC3:40:003:40:116:18 9.5439sehENGHIEN/EDINGEN
71.1247OSSTYN Filip45BELGEEN3:40:383:40:426:19 9.5221v1hDRANOUTER
72.1192LAPAIGE Frederic44BEL3:40:373:40:486:19 9.5122v1hUCCLE
73.1107DEWEZ Michael35BEL3:41:033:41:226:20 9.4940sehOPHAIN
74.1114DRUARD Valentin28FRADRUARD3:41:423:41:446:21 9.4741sehVILLENEUVE D'ASCQ
75.1112DOUBLECOURT Nicolas34FRAVILLENEUVE D'AS3:41:443:41:466:21 9.4742sehVILLENEUVE D'ASCQ
76.1290SEVRIN Antoine42BELNAC3:41:483:42:016:21 9.4623v1hBELGIQUE
77.1031BERTHET Alain57BEL3:42:083:42:146:21 9.458v2hDIN VALMONT
78.1333VANSANTVOET Stéphane39BEL11.11.113:42:143:42:426:22 9.4343sehBRUXELLES
79.1057CANON Mathieu39BELLDLV3:42:173:42:456:22 9.4344sehBRUXELLES
80.1272RIVIÈRE Emmanuel36BEL3:43:033:43:076:23 9.4145sehMOORSLEDE
81.1085DEDOYARD François40BEL3:43:383:43:466:24 9.3924v1hMELDERT
82.1388FREMAULT Benjamin36BEL3:43:463:44:046:25 9.3746seh
83.1274FROBERTI Daphné39BELRC NAMUR3:44:023:44:166:25 9.362v1fSTAVE (METTET)
84.1332VAN ORSHAEGEN Louis60BELCOHE3:44:163:44:396:26 9.351v3hKASTERLEE
85.1054BURNIAUX François30BEL3:45:113:45:266:27 9.3247sehUCCLE
86.1117DYSSELEER Laurent36BEL3:45:203:45:276:27 9.3248sehBUISSENAL
87.1318VAN DER POORTEN Glenn25BELSELLA RONDA TE3:45:163:45:386:27 9.3149sehGERAAARDSBERGEN
88.1023BAYOT Bernard53BELCEPAL3:45:183:45:446:27 9.309v2hBRUXELLES
89.1062CARREE Daniel48FRA3:45:023:45:516:28 9.3025v1hLA SENTINELLE
90.1346VERVY Quentin28BELTEAM QU.BE3:46:413:46:576:30 9.2550sehSOMZÉE
91.1182KOWALCZYK Benoît30BELTEAM QU.BE3:47:113:47:276:30 9.2351sehESTINNES-AU-MONT
92.1328VAN LEERDAM Bart48NLDPRINS HENDRIK3:47:293:47:446:31 9.2226v1hVUGHT
93.1300STIENEN Rudi41BEL3:47:523:47:566:31 9.2127v1hMAASEIK
94.1065CHEVALIER Michaeël43BELVERTIGO3:47:203:48:016:31 9.2128v1hNIMY
95.1172JACOBS François-Dominique55BEL3:47:503:48:036:31 9.2110v2hOTTIGNIES
96.1125FERAUCHE Jean-Marie66BELUAC3:48:253:48:346:32 9.192v3hLES BONS VILLERS
97.1041FBORN Margot55BELAC EIFEL/ HAUTE3:48:103:48:386:32 9.191v3fSCHÖNBERG/ ST. VITH
98.1382KRAEMER SigiBEL3:48:113:48:386:32 9.191xxx
99.1005AHMAD Fadzli31MYS3:49:373:49:506:34 9.1452sehSINT-LAMBRECHTS-WOLUWE
100.1369STEVENS Ivo42BELDE BOSLOPERS3:50:273:50:386:36 9.1129v1hBORNEM
101.1170FIMBO Ineke35BELGENTLOOPT3:52:413:53:176:40 9.003v1fGENT
102.1207LHOIR Gregory43BELSPI BO3:53:053:53:216:41 9.0030v1hPATURAGES
103.1374HOUTTEQUIET Stéphane45BELPOPUELLES DREAM3:55:393:56:096:45 8.8931v1hESCANAFFLES
104.1366FAMELART Michel52BELE.T.CHIEVRES3:56:053:56:266:46 8.8811v2hATH
105.1387SURQUIN Jean-Luc47BELTRAKKS/RCB3:57:083:57:126:47 8.8532v1h
106.1200LEJEUNE Laurent43BELRCB3:57:073:57:136:47 8.8533v1hKRAAINEM
107.1340VERGOUWEN Bernd46BELAVT-NEEROETEREN3:58:043:58:096:49 8.8234v1hNEEROETEREN
108.1129FFLONET Marylene37BELCABW3:58:453:59:026:50 8.794v1fWAGNELEE
109.1391VANNOORENBERGHE Cédric25BELRRT CHATELET3:59:283:59:456:51 8.7653sehSOIGNIES
110.1288SERVAIS Anthony30BELETCHIÈVRES3:59:223:59:486:52 8.7654sehNASSOGNE
111.1371FVERVOORT Sylvie38BELGENTLOOPT.BE3:59:274:00:036:52 8.755v1fGENT
112.1338VERBEURE Jonathan30BELENDURANCE TEAM 3:59:554:00:176:52 8.7455sehBRUNEHAUT
113.1223MARIO Velazquez31ESPADC 100 PIES4:00:284:00:456:53 8.7256sehCALERA Y CHOZAS
114.1043BORZÉE Christophe37BELCC VISSEURS4:01:584:02:476:57 8.6557sehMARCHE-LEZ-ECAUSSINNES
115.1147GODFROID Yves48BELUSBW/MYSTÈRE4:02:444:03:196:58 8.6335v1hWATERLOO
116.1075FDAENEKYNT Isabel47BELSODIBRUG4:03:494:04:297:00 8.591v2fBRUGGE
117.1299STICCA Alexandre24ITA4:04:304:04:487:00 8.5858sehBRUXELLES
118.1358ZAGO Arduino55BELFRT BINCHE4:04:024:04:497:00 8.5812v2hWAUDREZ
119.1081DECOBERT Simon23FRAACVA4:04:424:04:517:00 8.5859sehWATTRELOS
120.1312VALLEZ Clement29FRA4:04:094:04:557:00 8.5760sehROEULX
121.1365DUDZIAK Teddy29FRA4:04:204:05:057:01 8.5761sehJOLLAIN
122.1003AELBRECHT Jeroen34BEL4:05:384:06:077:02 8.5362sehOPWIJK
123.1180KESTENS Lory22BELTUBIFOOT4:05:424:06:217:03 8.5263sehPETIT ROEULX LES BRAINE
124.1309TILLIEUX Guy65BELVACH4:05:514:06:307:03 8.523v3hHASSELT
125.1008ANCELLIN Christophe46FRA4:06:424:06:477:04 8.5136v1hUCCLE
126.1074CWIKOWSKI Marc53BEL4:06:524:07:037:04 8.5013v2hSAIVE
127.1246FO'KEEFFE Clare45IRL4:06:534:07:037:04 8.502v2fIXELLES
128.1305TELLIER Christophe33BELANTILOB4:07:184:08:047:06 8.4764sehVILLERS-LA-VILLE
129.1046BOULEN Patrick60FRAACVA VILLENEUVE4:08:174:08:247:06 8.454v3hVILLENEUVE D'ASCQ
130.1145GODAERT Bart42BEL4:08:204:08:337:07 8.4537v1hSTEENHUIZE
131.1004AERTS Alain49BELFLEU/BORN TO RU4:09:134:09:577:09 8.4038v1hGOUY-LEZ-PIÉTON
132.1331VAN NIEUWENHOVE Philippe47BEL4:09:374:10:037:09 8.4039v1h7830
133.1094DELHAYE Stéphane42BEL4:10:214:10:507:10 8.3740v1hESCANAFFLES
134.1347VILAIN Patrick53BELBORN TO RUN4:10:504:11:027:11 8.3714v2hQUAREGNON
135.1231MEUWIS Frederic43BELGAG4:10:534:11:057:11 8.3641v1hGEMBLOUX
136.1315VAN DEN HAUWE Mickael34BEL4:10:374:11:117:11 8.3665sehVLEZENBEEK
137.1014FBAIWY Olivia32BEL4:11:244:12:067:13 8.334sefKRAAINEM
138.1381CADET Rodolphe22FRA4:11:454:12:077:13 8.3366sehBRUXELLES
139.1135GARREAU Charles23FRA4:11:474:12:077:13 8.3367sehAUDERGHEM
140.1064CHAPUY Philémon19FRA4:12:014:12:137:13 8.3368sehQUEYRIERES
141.1164FHOSTE Myriam45BELGENTLOOPT4:12:454:13:207:15 8.293v2fSINT AMANDSBERG
142.1259PIRET Olivier38BELHOC4:12:484:13:417:15 8.2869sehLOBBES
143.1292FSOHET Alexia30BELRCB4:13:384:14:187:16 8.265sefUCCLE
144.1270REVILLOD Sebastien34BELFLEURUS ATHLETI4:14:364:14:537:17 8.2470sehMETET
145.1141GILBART Vincent35BEL4:17:364:18:277:24 8.1371sehBRAINE L'ALLEUD
146.1166HUBERT Gilles37BEL4:17:394:18:307:24 8.1272sehBRUXELLES
147.1297STAPELLE Eric52BELSMAC4:19:264:19:577:26 8.0815v2hBOIS-DE-VILLERS
148.1185FLABENNE Sophie43BELSMAC4:19:264:19:577:26 8.086v1fBOIS-DE-VILLERS
149.1087DEGRAEVE Kenny30BELDAPALO4:19:404:20:097:26 8.0773sehDADIZELE
150.1076DARTOIS Julien29FRAL' ELAN ONNAING4:19:404:20:197:27 8.0774sehLA CAPELLE
151.1258PIPART Greg36FRALES X'PLATCH4:19:394:20:207:27 8.0775sehVALENCIENNES
152.1044FBOSMAN Joëlle40BEL4:21:234:21:297:29 8.037v1fLIMAL
153.1208LIBERT Thierry40BELETENGHIEN4:21:254:21:317:29 8.0342v1hENGHIEN
154.1194FLECLERC Sandrine27FRATRAKKS4:22:414:23:017:31 7.986sefETTERBEEK
155.1161HIERNAUX Yves37BELRUNNING TEAM 114:23:314:23:577:33 7.9676sehBRUXELLES
156.1212FLOSSON Virginie36BEL4:23:324:24:017:33 7.958v1fBRUXELLES
157.1214LUX Arno49BEL4:24:284:24:577:35 7.9343v1hEUPEN
158.1226MEIRSMAN Geoffrey39BEL4:25:134:25:317:36 7.9177sehBRUXELLES
159.1115DUMONT Caryl40BELNAC4:25:274:25:587:36 7.9044v1hBINCHE
160.1336FVAN ZELE Els41BELIRONMANAGERS4:25:324:26:087:37 7.899v1fGENT
161.1242MUSSCHE Frederik41BEL4:27:034:27:347:39 7.8545v1hZOTTEGEM
162.1268REMY Jean Christophe42FRA4:27:144:27:527:40 7.8446v1hESTREUX
163.1101FDERAUX Cecile44BEL4:27:424:27:537:40 7.8410v1fBRUXELLES
164.1313VALLOIS Michaël43BELTEAM RAIDLIGHT4:27:544:28:297:41 7.8247v1hBRAINE-LE-COMTE
165.1233MICHIELS Alex51BEL4:27:474:28:307:41 7.8216v2hBRUGGE
166.1277ROQUES Bruno49FRAROYAL LÉOPOLD C4:27:564:28:467:41 7.8148v1hUCCLE
167.1377DELAHAYE Yves55BEL4:28:444:28:577:42 7.8117v2hGEMBLOUX
168.1327VANHUYSSE Olivier39BELRCB TRAIL4:29:134:29:327:43 7.7978sehDIEGEM
169.1104DESMET Xavier47BEL4:28:504:29:357:43 7.7949v1hNIVELLES
170.1342FVERLEY Sophie38FRA4:29:284:29:437:43 7.7911v1fLAMBERSART
171.1215FMAHIEU Valentine31BELE.T.ENGHIEN4:30:464:30:537:45 7.757sefBRUXELLES
172.1049BOUTRIAUX Michaël37BELETENGHIEN4:30:484:30:547:45 7.7579sehFOREST
173.1238FMOELTER Erika42BELFLEU4:30:134:30:577:45 7.7512v1fVITRIVAL
174.1088DEHANDSCHUTTER Herman56BELDE ZANDSTUYVERS4:32:434:33:107:49 7.6918v2hDE HAAN (KLEMSKERKE)
175.1168HUYBEN Jef57BELZANDSTUIVERS4:32:494:33:157:49 7.6919v2hDE HAAN
176.1067CLAESSENS Yannic43BEL4:33:244:33:457:50 7.6750v1hCHASTRE
177.1291SGALBIERO Orazio58ITA4:34:044:34:437:51 7.6420v2hTUBIZE
178.1280RUSSO Frédéric38BELLES AMIS JOGGEU4:36:054:36:417:55 7.5980sehLA BOUVERIE
179.1134FFREVILLE Elsa43FRARCB4:36:374:37:187:56 7.5713v1fBRUXELLES
180.1016BALLEZ Francois54BEL4:37:484:38:377:58 7.5421v2hMONS
181.1199LEJEUNE Alain49BEL4:38:514:39:378:00 7.5151v1hLILLOIS
182.1056BUYSE Geert51BELABMARKE4:43:244:43:448:07 7.4022v2hHEULE
183.1276ROOSENS Frans27BELLES TROIS MOUSQ4:49:174:50:108:18 7.2481sehBRAINE-LE-COMTE
184.1289SEVENS Quentin30BELLES TROIS MOUSQ4:49:174:50:108:18 7.2482sehBRAINE-LE-COMTE
185.1218MALBRECQ Bernard58BELTHEODO TEMPO4:49:234:50:158:18 7.2423v2hSOIGNIES
186.1061CARPENTIER Georges52BEL4:50:164:50:328:19 7.2324v2hBERCHEM- STE-AGATHE
187.1197LEGRAND Christophe38BEL4:51:354:51:518:21 7.2083sehGENAPPE
188.1232MICHELIS Francois28FRAFNO64:51:554:52:318:22 7.1884sehLIÈGE
189.1093DELBOUILLE Thierry48BEL4:51:554:52:328:22 7.1852v1hSOIGNIES
190.1202FLERATE Vincianne48BELBORN TO RUN TEA4:52:004:52:398:22 7.184v2fNIVELLES
191.1105DE STAERCKE Jean-Benoit58BEL4:52:184:53:038:23 7.1725v2hHALTINNE
192.1310TRGO Alain52BELNAC4:58:204:58:598:33 7.0226v2hNIVELLES
193.1012BAILLY Julien32FRACOURE TRAIL ET 5:06:465:07:238:47 6.8385sehAVESNES LE SEC
194.1314VANBELLINGEN Hans38BELLES COUREURS CE5:11:495:12:428:57 6.7286sehHAREN
195.1198LEHAIRE Ivan45FRAJ.E.T.5:21:245:22:069:13 6.5253v1hTUBIZE
DSQ1206LEVY Philippe53BELv2hAFNSEE
DSQ1124FAYT Claude64BEL2:00:562:01:49v3hGOUY LEZ PIETON
DSQ1244NELISSEN Johny43BEL3:03:153:03:20v1hBREE
DSQ1334VAN VOOREN David45BELKREKENLOPERS3:03:083:03:30v1hEEKLO
DSQ167HONY Florent34BELBRUXELLES TRIAT3:51:473:51:56sehBRUXELLES
DSQ1013BAIWY Nicolas64BELURBAN TRI TEAM4:18:044:18:48v3hBRUXELLES
DNF1080DECLERCK Michael40BELv1hDEURNE
DNF1106DEVEZEAUX DE LAVERGN Jean-Marie28BELBTCsehETTERBEEK
DNF1262JOSSE PhilippeBELxxx
DNF1216MAHY Denis38BELTITANsehBUZET
DNF1273ROBARD Youri38BELWOMMELGEM ENDURsehLIER
DNF: did not finish; DSQ: disqualified; Speed in km/h
Page: [1]